Time,TemperatureF,DewpointF,PressureIn,WindDirection,WindDirectionDegrees,WindSpeedMPH,WindSpeedGustMPH,Humidity,HourlyPrecipIn,Conditions,Clouds,dailyrainin,SoftwareType,DateUTC
2013-03-24 00:00:00,38.0,23.3,29.93,WNW,290,2.0,16.0,55,0.00,,CLR,0.00,VWS V14.01,2013-03-24 04:00:00,
2013-03-24 00:05:00,37.8,23.5,29.93,WNW,296,2.0,16.0,56,0.00,,CLR,0.00,VWS V14.01,2013-03-24 04:05:00,
2013-03-24 00:10:00,37.6,23.3,29.93,WNW,292,5.0,5.0,56,0.00,,CLR,0.00,VWS V14.01,2013-03-24 04:10:00,
2013-03-24 00:16:00,37.5,23.7,29.93,SW,232,2.0,10.0,57,0.00,,CLR,0.00,VWS V14.01,2013-03-24 04:16:00,
2013-03-24 00:21:00,37.4,23.6,29.93,SW,232,2.0,0.0,57,0.00,,CLR,0.00,VWS V14.01,2013-03-24 04:21:00,
2013-03-24 00:26:00,37.2,23.4,29.93,WSW,253,2.0,8.0,57,0.00,,CLR,0.00,VWS V14.01,2013-03-24 04:26:00,
2013-03-24 00:31:00,37.1,23.7,29.93,WNW,302,2.0,0.0,58,0.00,,CLR,0.00,VWS V14.01,2013-03-24 04:31:00,
2013-03-24 00:36:00,36.9,23.5,29.94,WSW,250,2.0,8.0,58,0.00,,CLR,0.00,VWS V14.01,2013-03-24 04:36:00,
2013-03-24 00:41:00,36.7,23.7,29.94,WNW,300,2.0,2.0,59,0.00,,CLR,0.00,VWS V14.01,2013-03-24 04:41:00,
2013-03-24 00:46:00,36.6,23.6,29.94,WNW,300,5.0,5.0,59,0.00,,CLR,0.00,VWS V14.01,2013-03-24 04:46:00,
2013-03-24 00:51:00,36.5,24.0,29.93,West,277,8.0,8.0,60,0.00,,CLR,0.00,VWS V14.01,2013-03-24 04:51:00,
2013-03-24 00:56:00,36.5,24.0,29.94,West,277,2.0,6.0,60,0.00,,CLR,0.00,VWS V14.01,2013-03-24 04:56:00,
2013-03-24 01:01:00,36.4,23.9,29.93,NW,310,2.0,2.0,60,0.00,,CLR,0.00,VWS V14.01,2013-03-24 05:01:00,
2013-03-24 01:07:00,36.3,23.8,29.93,NW,310,2.0,4.0,60,0.00,,CLR,0.00,VWS V14.01,2013-03-24 05:07:00,
2013-03-24 01:12:00,36.2,24.1,29.93,NW,310,2.0,0.0,61,0.00,,CLR,0.00,VWS V14.01,2013-03-24 05:12:00,
2013-03-24 01:17:00,36.1,24.0,29.93,NW,310,2.0,2.0,61,0.00,,CLR,0.00,VWS V14.01,2013-03-24 05:17:00,
2013-03-24 01:22:00,35.9,23.8,29.93,NW,310,2.0,2.0,61,0.00,,CLR,0.00,VWS V14.01,2013-03-24 05:22:00,
2013-03-24 01:27:00,35.7,24.0,29.94,NW,310,5.0,5.0,62,0.00,,CLR,0.00,VWS V14.01,2013-03-24 05:27:00,
2013-03-24 01:32:00,35.5,23.8,29.93,NW,309,2.0,4.0,62,0.00,,CLR,0.00,VWS V14.01,2013-03-24 05:32:00,
2013-03-24 01:37:00,35.5,23.8,29.93,NW,311,2.0,12.0,62,0.00,,CLR,0.00,VWS V14.01,2013-03-24 05:37:00,
2013-03-24 01:43:00,35.5,23.8,29.93,NW,311,2.0,0.0,62,0.00,,CLR,0.00,VWS V14.01,2013-03-24 05:43:00,
2013-03-24 01:48:00,35.4,23.7,29.93,NW,311,2.0,2.0,62,0.00,,CLR,0.00,VWS V14.01,2013-03-24 05:48:00,
2013-03-24 01:53:00,35.3,23.6,29.93,NW,311,2.0,0.0,62,0.00,,CLR,0.00,VWS V14.01,2013-03-24 05:53:00,
2013-03-24 01:58:00,35.2,23.5,29.93,NW,311,2.0,0.0,62,0.00,,CLR,0.00,VWS V14.01,2013-03-24 05:58:00,
2013-03-24 02:03:00,35.0,23.3,29.93,NW,311,2.0,0.0,62,0.00,,CLR,0.00,VWS V14.01,2013-03-24 06:03:00,
2013-03-24 02:08:00,34.8,23.5,29.93,NW,311,2.0,4.0,63,0.00,,CLR,0.00,VWS V14.01,2013-03-24 06:08:00,
2013-03-24 02:13:00,34.6,23.7,29.92,NW,311,2.0,0.0,64,0.00,,CLR,0.00,VWS V14.01,2013-03-24 06:13:00,
2013-03-24 02:18:00,34.4,23.5,29.92,NW,311,2.0,0.0,64,0.00,,CLR,0.00,VWS V14.01,2013-03-24 06:18:00,
2013-03-24 02:23:00,34.2,23.3,29.92,NW,311,2.0,0.0,64,0.00,,CLR,0.00,VWS V14.01,2013-03-24 06:23:00,
2013-03-24 02:28:00,34.0,23.5,29.92,NW,311,2.0,0.0,65,0.00,,CLR,0.00,VWS V14.01,2013-03-24 06:28:00,
2013-03-24 02:33:00,33.9,23.4,29.92,NW,311,2.0,0.0,65,0.00,,CLR,0.00,VWS V14.01,2013-03-24 06:33:00,
2013-03-24 02:38:00,33.9,23.4,29.91,NW,311,2.0,0.0,65,0.00,,CLR,0.00,VWS V14.01,2013-03-24 06:38:00,
2013-03-24 02:43:00,34.0,23.5,29.91,NW,311,2.0,0.0,65,0.00,,CLR,0.00,VWS V14.01,2013-03-24 06:43:00,
2013-03-24 02:48:00,34.0,23.1,29.91,NW,311,2.0,0.0,64,0.00,,CLR,0.00,VWS V14.01,2013-03-24 06:48:00,
2013-03-24 02:53:00,33.8,23.3,29.90,NW,311,2.0,2.0,65,0.00,,CLR,0.00,VWS V14.01,2013-03-24 06:53:00,
2013-03-24 02:59:00,33.7,23.2,29.90,NW,311,2.0,4.0,65,0.00,,CLR,0.00,VWS V14.01,2013-03-24 06:59:00,
2013-03-24 03:04:00,33.6,23.5,29.90,NW,311,2.0,0.0,66,0.00,,CLR,0.00,VWS V14.01,2013-03-24 07:04:00,
2013-03-24 03:09:00,33.4,23.3,29.89,NW,311,2.0,0.0,66,0.00,,CLR,0.00,VWS V14.01,2013-03-24 07:09:00,
2013-03-24 03:14:00,33.3,23.2,29.89,NW,311,2.0,0.0,66,0.00,,CLR,0.00,VWS V14.01,2013-03-24 07:14:00,
2013-03-24 03:19:00,33.0,23.2,29.89,NW,311,2.0,0.0,67,0.00,,CLR,0.00,VWS V14.01,2013-03-24 07:19:00,
2013-03-24 03:24:00,32.6,23.2,29.90,NW,311,2.0,0.0,68,0.00,,CLR,0.00,VWS V14.01,2013-03-24 07:24:00,
2013-03-24 03:29:00,32.2,22.8,29.90,NW,311,2.0,0.0,68,0.00,,CLR,0.00,VWS V14.01,2013-03-24 07:29:00,
2013-03-24 03:34:00,31.9,22.9,29.91,NW,311,2.0,0.0,69,0.00,,CLR,0.00,VWS V14.01,2013-03-24 07:34:00,
2013-03-24 03:39:00,31.7,22.7,29.91,NW,311,2.0,0.0,69,0.00,,CLR,0.00,VWS V14.01,2013-03-24 07:39:00,
2013-03-24 03:44:00,31.9,22.9,29.91,NW,311,2.0,2.0,69,0.00,,CLR,0.00,VWS V14.01,2013-03-24 07:44:00,
2013-03-24 03:49:00,32.0,23.3,29.91,NW,311,2.0,2.0,70,0.00,,CLR,0.00,VWS V14.01,2013-03-24 07:49:00,
2013-03-24 03:54:00,32.0,23.0,29.91,NW,311,2.0,0.0,69,0.00,,CLR,0.00,VWS V14.01,2013-03-24 07:54:00,
2013-03-24 03:59:00,31.9,23.2,29.91,NW,311,2.0,0.0,70,0.00,,CLR,0.00,VWS V14.01,2013-03-24 07:59:00,
2013-03-24 04:04:00,31.7,23.0,29.91,NW,311,2.0,0.0,70,0.00,,CLR,0.00,VWS V14.01,2013-03-24 08:04:00,
2013-03-24 04:09:00,31.6,23.0,29.91,NW,311,2.0,0.0,70,0.00,,CLR,0.00,VWS V14.01,2013-03-24 08:09:00,
2013-03-24 04:15:00,31.4,23.1,29.91,NW,311,2.0,0.0,71,0.00,,CLR,0.00,VWS V14.01,2013-03-24 08:15:00,
2013-03-24 04:20:00,31.3,23.3,29.91,NW,311,2.0,2.0,72,0.00,,CLR,0.00,VWS V14.01,2013-03-24 08:20:00,
2013-03-24 04:25:00,31.4,23.4,29.91,NW,311,2.0,0.0,72,0.00,,CLR,0.00,VWS V14.01,2013-03-24 08:25:00,
2013-03-24 04:30:00,31.3,23.0,29.92,NW,311,2.0,0.0,71,0.00,,CLR,0.00,VWS V14.01,2013-03-24 08:30:00,
2013-03-24 04:35:00,31.2,23.2,29.91,NW,311,2.0,0.0,72,0.00,,CLR,0.00,VWS V14.01,2013-03-24 08:35:00,
2013-03-24 04:40:00,31.1,23.1,29.91,NW,311,2.0,0.0,72,0.00,,CLR,0.00,VWS V14.01,2013-03-24 08:40:00,
2013-03-24 04:45:00,31.0,23.0,29.91,NW,311,2.0,0.0,72,0.00,,CLR,0.00,VWS V14.01,2013-03-24 08:45:00,
2013-03-24 04:50:00,30.9,23.0,29.92,NW,311,2.0,0.0,72,0.00,,CLR,0.00,VWS V14.01,2013-03-24 08:50:00,
2013-03-24 04:55:00,30.7,22.8,29.92,NW,311,2.0,0.0,72,0.00,,CLR,0.00,VWS V14.01,2013-03-24 08:55:00,
2013-03-24 05:00:00,30.7,23.1,29.92,NW,311,2.0,0.0,73,0.00,,CLR,0.00,VWS V14.01,2013-03-24 09:00:00,
2013-03-24 05:05:00,30.7,23.1,29.92,NW,311,2.0,2.0,73,0.00,,CLR,0.00,VWS V14.01,2013-03-24 09:05:00,
2013-03-24 05:10:00,30.7,23.4,29.92,NW,311,2.0,2.0,74,0.00,,CLR,0.00,VWS V14.01,2013-03-24 09:10:00,
2013-03-24 05:15:00,30.5,23.2,29.92,NW,311,2.0,0.0,74,0.00,,CLR,0.00,VWS V14.01,2013-03-24 09:15:00,
2013-03-24 05:20:00,30.4,23.1,29.92,NW,311,2.0,0.0,74,0.00,,CLR,0.00,VWS V14.01,2013-03-24 09:20:00,
2013-03-24 05:25:00,30.5,22.9,29.92,NW,311,2.0,0.0,73,0.00,,CLR,0.00,VWS V14.01,2013-03-24 09:25:00,
2013-03-24 05:30:00,30.6,23.3,29.92,NW,311,2.0,2.0,74,0.00,,CLR,0.00,VWS V14.01,2013-03-24 09:30:00,
2013-03-24 05:35:00,30.7,23.4,29.93,NW,311,2.0,2.0,74,0.00,,CLR,0.00,VWS V14.01,2013-03-24 09:35:00,
2013-03-24 05:40:00,30.7,23.4,29.93,NW,311,2.0,2.0,74,0.00,,CLR,0.00,VWS V14.01,2013-03-24 09:40:00,
2013-03-24 05:45:00,30.7,23.4,29.93,NW,311,2.0,0.0,74,0.00,,CLR,0.00,VWS V14.01,2013-03-24 09:45:00,
2013-03-24 05:50:00,30.8,23.2,29.93,NW,311,2.0,0.0,73,0.00,,CLR,0.00,VWS V14.01,2013-03-24 09:50:00,
2013-03-24 05:55:00,30.9,23.3,29.93,NW,311,2.0,0.0,73,0.00,,CLR,0.00,VWS V14.01,2013-03-24 09:55:00,
2013-03-24 06:01:00,31.2,23.2,29.93,NW,311,2.0,0.0,72,0.00,,CLR,0.00,VWS V14.01,2013-03-24 10:01:00,
2013-03-24 06:06:00,31.3,23.3,29.93,NW,311,2.0,0.0,72,0.00,,CLR,0.00,VWS V14.01,2013-03-24 10:06:00,
2013-03-24 06:11:00,31.2,23.2,29.93,NW,311,2.0,0.0,72,0.00,,CLR,0.00,VWS V14.01,2013-03-24 10:11:00,
2013-03-24 06:16:00,31.1,23.1,29.93,NW,311,2.0,0.0,72,0.00,,CLR,0.00,VWS V14.01,2013-03-24 10:16:00,
2013-03-24 06:21:00,31.0,23.0,29.93,NW,311,2.0,0.0,72,0.00,,CLR,0.00,VWS V14.01,2013-03-24 10:21:00,
2013-03-24 06:26:00,31.0,23.0,29.93,NW,311,2.0,0.0,72,0.00,,CLR,0.00,VWS V14.01,2013-03-24 10:26:00,
2013-03-24 06:32:00,31.1,23.1,29.92,NW,311,2.0,0.0,72,0.00,,CLR,0.00,VWS V14.01,2013-03-24 10:32:00,
2013-03-24 06:37:00,31.1,23.1,29.92,NW,311,2.0,0.0,72,0.00,,CLR,0.00,VWS V14.01,2013-03-24 10:37:00,
2013-03-24 06:42:00,31.0,23.0,29.92,NW,311,2.0,0.0,72,0.00,,CLR,0.00,VWS V14.01,2013-03-24 10:42:00,
2013-03-24 06:47:00,31.0,23.0,29.93,NW,311,2.0,2.0,72,0.00,,CLR,0.00,VWS V14.01,2013-03-24 10:47:00,
2013-03-24 06:52:00,31.0,23.0,29.93,NW,311,2.0,0.0,72,0.00,,CLR,0.00,VWS V14.01,2013-03-24 10:52:00,
2013-03-24 06:57:00,31.0,23.0,29.93,NW,311,2.0,2.0,72,0.00,,CLR,0.00,VWS V14.01,2013-03-24 10:57:00,
2013-03-24 07:02:00,30.9,23.0,29.93,NW,311,2.0,0.0,72,0.00,,CLR,0.00,VWS V14.01,2013-03-24 11:02:00,
2013-03-24 07:07:00,30.8,22.9,29.93,NW,311,2.0,0.0,72,0.00,,CLR,0.00,VWS V14.01,2013-03-24 11:07:00,
2013-03-24 07:12:00,30.7,23.1,29.94,NW,311,2.0,0.0,73,0.00,,CLR,0.00,VWS V14.01,2013-03-24 11:12:00,
2013-03-24 07:17:00,30.7,23.1,29.94,NW,311,2.0,0.0,73,0.00,,CLR,0.00,VWS V14.01,2013-03-24 11:17:00,
2013-03-24 07:22:00,30.9,23.3,29.94,NW,311,2.0,0.0,73,0.00,,CLR,0.00,VWS V14.01,2013-03-24 11:22:00,
2013-03-24 07:27:00,31.2,23.6,29.95,NW,311,2.0,0.0,73,0.00,,CLR,0.00,VWS V14.01,2013-03-24 11:27:00,
2013-03-24 07:32:00,31.6,23.6,29.95,NW,311,2.0,2.0,72,0.00,,CLR,0.00,VWS V14.01,2013-03-24 11:32:00,
2013-03-24 07:37:00,32.2,24.2,29.94,NW,311,2.0,2.0,72,0.00,,CLR,0.00,VWS V14.01,2013-03-24 11:37:00,
2013-03-24 07:42:00,32.9,24.5,29.94,NW,311,2.0,0.0,71,0.00,,CLR,0.00,VWS V14.01,2013-03-24 11:42:00,
2013-03-24 07:48:00,33.8,24.7,29.94,NW,311,2.0,2.0,69,0.00,,CLR,0.00,VWS V14.01,2013-03-24 11:48:00,
2013-03-24 07:53:00,34.6,25.1,29.94,NW,311,2.0,0.0,68,0.00,,CLR,0.00,VWS V14.01,2013-03-24 11:53:00,
2013-03-24 07:58:00,35.1,24.9,29.94,NW,311,2.0,2.0,66,0.00,,CLR,0.00,VWS V14.01,2013-03-24 11:58:00,
2013-03-24 08:03:00,35.6,25.0,29.94,WSW,250,2.0,8.0,65,0.00,,CLR,0.00,VWS V14.01,2013-03-24 12:03:00,
2013-03-24 08:08:00,36.1,25.1,29.95,WSW,250,2.0,8.0,64,0.00,,CLR,0.00,VWS V14.01,2013-03-24 12:08:00,
2013-03-24 08:13:00,36.5,25.1,29.95,WSW,250,2.0,2.0,63,0.00,,CLR,0.00,VWS V14.01,2013-03-24 12:13:00,
2013-03-24 08:18:00,36.8,25.0,29.95,WSW,250,2.0,4.0,62,0.00,,CLR,0.00,VWS V14.01,2013-03-24 12:18:00,
2013-03-24 08:23:00,37.1,25.3,29.95,WSW,250,2.0,6.0,62,0.00,,CLR,0.00,VWS V14.01,2013-03-24 12:23:00,
2013-03-24 08:28:00,37.5,25.3,29.95,West,273,2.0,6.0,61,0.00,,CLR,0.00,VWS V14.01,2013-03-24 12:28:00,
2013-03-24 08:33:00,37.7,25.5,29.95,West,264,5.0,8.0,61,0.00,,CLR,0.00,VWS V14.01,2013-03-24 12:33:00,
2013-03-24 08:38:00,37.9,25.7,29.95,WNW,297,2.0,8.0,61,0.00,,CLR,0.00,VWS V14.01,2013-03-24 12:38:00,
2013-03-24 08:43:00,38.6,25.9,29.95,WNW,296,2.0,4.0,60,0.00,,CLR,0.00,VWS V14.01,2013-03-24 12:43:00,
2013-03-24 08:48:00,39.0,25.9,29.95,WNW,297,2.0,6.0,59,0.00,,CLR,0.00,VWS V14.01,2013-03-24 12:48:00,
2013-03-24 08:54:00,39.2,26.1,29.94,SW,233,5.0,12.0,59,0.00,,CLR,0.00,VWS V14.01,2013-03-24 12:54:00,
2013-03-24 08:59:00,39.0,25.5,29.94,SSW,213,8.0,12.0,58,0.00,,CLR,0.00,VWS V14.01,2013-03-24 12:59:00,
2013-03-24 09:04:00,39.2,25.7,29.94,NW,313,2.0,8.0,58,0.00,,CLR,0.00,VWS V14.01,2013-03-24 13:04:00,
2013-03-24 09:09:00,39.5,26.0,29.93,NNE,30,8.0,12.0,58,0.00,,CLR,0.00,VWS V14.01,2013-03-24 13:09:00,
2013-03-24 09:14:00,39.7,25.7,29.93,WSW,252,2.0,20.0,57,0.00,,CLR,0.00,VWS V14.01,2013-03-24 13:14:00,
2013-03-24 09:19:00,39.9,25.9,29.93,NW,318,2.0,20.0,57,0.00,,CLR,0.00,VWS V14.01,2013-03-24 13:19:00,
2013-03-24 09:24:00,40.0,25.6,29.93,ESE,107,2.0,16.0,56,0.00,,CLR,0.00,VWS V14.01,2013-03-24 13:24:00,
2013-03-24 09:29:00,40.4,26.0,29.94,North,9,2.0,16.0,56,0.00,,CLR,0.00,VWS V14.01,2013-03-24 13:29:00,
2013-03-24 09:34:00,40.9,26.0,29.93,WSW,240,8.0,22.0,55,0.00,,CLR,0.00,VWS V14.01,2013-03-24 13:34:00,
2013-03-24 09:39:00,41.2,25.8,29.93,West,259,2.0,22.0,54,0.00,,CLR,0.00,VWS V14.01,2013-03-24 13:39:00,
2013-03-24 09:45:00,41.5,25.7,29.93,NNW,327,5.0,10.0,53,0.00,,CLR,0.00,VWS V14.01,2013-03-24 13:45:00,
2013-03-24 09:50:00,41.6,25.8,29.93,WSW,249,2.0,14.0,53,0.00,,CLR,0.00,VWS V14.01,2013-03-24 13:50:00,
2013-03-24 09:55:00,41.9,25.6,29.93,NNE,28,2.0,14.0,52,0.00,,CLR,0.00,VWS V14.01,2013-03-24 13:55:00,
2013-03-24 10:00:00,42.0,25.7,29.93,ENE,68,2.0,14.0,52,0.00,,CLR,0.00,VWS V14.01,2013-03-24 14:00:00,
2013-03-24 10:05:00,42.4,25.6,29.93,NNE,13,2.0,14.0,51,0.00,,CLR,0.00,VWS V14.01,2013-03-24 14:05:00,
2013-03-24 10:10:00,42.5,25.7,29.93,WSW,253,2.0,16.0,51,0.00,,CLR,0.00,VWS V14.01,2013-03-24 14:10:00,
2013-03-24 10:15:00,42.5,25.7,29.93,WNW,287,2.0,12.0,51,0.00,,CLR,0.00,VWS V14.01,2013-03-24 14:15:00,
2013-03-24 10:20:00,42.8,25.9,29.93,WSW,250,2.0,12.0,51,0.00,,CLR,0.00,VWS V14.01,2013-03-24 14:20:00,
2013-03-24 10:25:00,42.8,25.5,29.92,NNW,331,5.0,12.0,50,0.00,,CLR,0.00,VWS V14.01,2013-03-24 14:25:00,
2013-03-24 10:30:00,42.9,26.0,29.92,NNE,33,2.0,16.0,51,0.00,,CLR,0.00,VWS V14.01,2013-03-24 14:30:00,
2013-03-24 10:35:00,42.8,25.5,29.92,WNW,299,2.0,12.0,50,0.00,,CLR,0.00,VWS V14.01,2013-03-24 14:35:00,
2013-03-24 10:40:00,43.3,26.4,29.91,West,267,5.0,12.0,51,0.00,,CLR,0.00,VWS V14.01,2013-03-24 14:40:00,
2013-03-24 10:45:00,43.1,25.7,29.91,West,275,8.0,22.0,50,0.00,,CLR,0.00,VWS V14.01,2013-03-24 14:45:00,
2013-03-24 10:51:00,43.4,25.5,29.91,West,260,14.0,14.0,49,0.00,,CLR,0.00,VWS V14.01,2013-03-24 14:51:00,
2013-03-24 10:56:00,43.2,25.4,29.91,NW,311,5.0,14.0,49,0.00,,CLR,0.00,VWS V14.01,2013-03-24 14:56:00,
2013-03-24 11:01:00,43.8,25.9,29.90,WSW,258,5.0,14.0,49,0.00,,CLR,0.00,VWS V14.01,2013-03-24 15:01:00,
2013-03-24 11:07:00,43.9,25.5,29.89,WSW,245,5.0,14.0,48,0.00,,CLR,0.00,VWS V14.01,2013-03-24 15:07:00,
2013-03-24 11:12:00,44.1,26.2,29.90,NW,313,2.0,0.0,49,0.00,,CLR,0.00,VWS V14.01,2013-03-24 15:12:00,
2013-03-24 11:17:00,44.1,26.2,29.89,SW,230,2.0,14.0,49,0.00,,CLR,0.00,VWS V14.01,2013-03-24 15:17:00,
2013-03-24 11:22:00,44.7,26.7,29.89,NW,313,2.0,10.0,49,0.00,,CLR,0.00,VWS V14.01,2013-03-24 15:22:00,
2013-03-24 11:27:00,45.3,26.8,29.89,WSW,252,5.0,12.0,48,0.00,,CLR,0.00,VWS V14.01,2013-03-24 15:27:00,
2013-03-24 11:33:00,45.6,26.0,29.89,North,360,2.0,8.0,46,0.00,,CLR,0.00,VWS V14.01,2013-03-24 15:33:00,
2013-03-24 11:38:00,45.6,26.0,29.88,NNW,346,2.0,14.0,46,0.00,,CLR,0.00,VWS V14.01,2013-03-24 15:38:00,
2013-03-24 11:43:00,45.6,27.1,29.88,NW,326,2.0,12.0,48,0.00,,CLR,0.00,VWS V14.01,2013-03-24 15:43:00,
2013-03-24 11:48:00,45.9,26.3,29.87,NE,49,2.0,12.0,46,0.00,,CLR,0.00,VWS V14.01,2013-03-24 15:48:00,
2013-03-24 11:53:00,46.2,26.6,29.87,ENE,71,2.0,14.0,46,0.00,,CLR,0.00,VWS V14.01,2013-03-24 15:53:00,
2013-03-24 11:58:00,46.9,27.2,29.87,ENE,67,2.0,14.0,46,0.00,,CLR,0.00,VWS V14.01,2013-03-24 15:58:00,
2013-03-24 12:03:00,47.3,27.0,29.86,West,271,2.0,4.0,45,0.00,,CLR,0.00,VWS V14.01,2013-03-24 16:03:00,
2013-03-24 12:08:00,47.2,26.4,29.85,WSW,242,2.0,16.0,44,0.00,,CLR,0.00,VWS V14.01,2013-03-24 16:08:00,
2013-03-24 12:13:00,47.3,27.6,29.85,NW,306,5.0,8.0,46,0.00,,CLR,0.00,VWS V14.01,2013-03-24 16:13:00,
2013-03-24 12:18:00,47.3,26.5,29.85,WNW,299,17.0,17.0,44,0.00,,CLR,0.00,VWS V14.01,2013-03-24 16:18:00,
2013-03-24 12:23:00,47.1,26.9,29.84,NW,309,2.0,12.0,45,0.00,,CLR,0.00,VWS V14.01,2013-03-24 16:23:00,
2013-03-24 12:28:00,47.3,27.6,29.84,North,360,5.0,12.0,46,0.00,,CLR,0.00,VWS V14.01,2013-03-24 16:28:00,
2013-03-24 12:33:00,47.4,27.1,29.83,North,355,8.0,10.0,45,0.00,,CLR,0.00,VWS V14.01,2013-03-24 16:33:00,
2013-03-24 12:39:00,47.2,27.0,29.83,SW,232,2.0,12.0,45,0.00,,CLR,0.00,VWS V14.01,2013-03-24 16:39:00,
2013-03-24 12:43:00,47.5,27.2,29.83,NNW,336,2.0,16.0,45,0.00,,CLR,0.00,VWS V14.01,2013-03-24 16:43:00,
2013-03-24 12:48:00,47.9,27.6,29.83,NNE,22,5.0,16.0,45,0.00,,CLR,0.00,VWS V14.01,2013-03-24 16:48:00,
2013-03-24 12:54:00,48.3,27.4,29.83,WSW,242,5.0,10.0,44,0.00,,CLR,0.00,VWS V14.01,2013-03-24 16:54:00,
2013-03-24 12:59:00,48.0,27.7,29.84,East,84,2.0,12.0,45,0.00,,CLR,0.00,VWS V14.01,2013-03-24 16:59:00,
2013-03-24 13:04:00,48.5,27.6,29.84,NNE,22,2.0,2.0,44,0.00,,CLR,0.00,VWS V14.01,2013-03-24 17:04:00,
2013-03-24 13:09:00,48.5,27.6,29.85,WSW,240,2.0,18.0,44,0.00,,CLR,0.00,VWS V14.01,2013-03-24 17:09:00,
2013-03-24 13:14:00,48.1,26.7,29.85,ENE,59,2.0,14.0,43,0.00,,CLR,0.00,VWS V14.01,2013-03-24 17:14:00,
2013-03-24 13:19:00,47.9,27.0,29.85,NW,322,2.0,14.0,44,0.00,,CLR,0.00,VWS V14.01,2013-03-24 17:19:00,
2013-03-24 13:24:00,48.1,26.7,29.84,North,9,2.0,8.0,43,0.00,,CLR,0.00,VWS V14.01,2013-03-24 17:24:00,
2013-03-24 13:29:00,48.6,27.1,29.84,North,5,2.0,8.0,43,0.00,,CLR,0.00,VWS V14.01,2013-03-24 17:29:00,
2013-03-24 13:34:00,49.0,26.9,29.84,SW,236,2.0,10.0,42,0.00,,CLR,0.00,VWS V14.01,2013-03-24 17:34:00,
2013-03-24 13:39:00,48.7,27.2,29.83,SW,236,5.0,20.0,43,0.00,,CLR,0.00,VWS V14.01,2013-03-24 17:39:00,
2013-03-24 13:44:00,48.8,27.3,29.83,West,269,5.0,8.0,43,0.00,,CLR,0.00,VWS V14.01,2013-03-24 17:44:00,
2013-03-24 13:49:00,48.9,26.8,29.82,WNW,288,2.0,8.0,42,0.00,,CLR,0.00,VWS V14.01,2013-03-24 17:49:00,
2013-03-24 13:54:00,49.0,26.9,29.82,NW,311,2.0,8.0,42,0.00,,CLR,0.00,VWS V14.01,2013-03-24 17:54:00,
2013-03-24 13:59:00,49.4,28.4,29.81,WNW,291,5.0,8.0,44,0.00,,CLR,0.00,VWS V14.01,2013-03-24 17:59:00,
2013-03-24 14:04:00,49.4,27.3,29.80,NNW,340,14.0,14.0,42,0.00,,CLR,0.00,VWS V14.01,2013-03-24 18:04:00,
2013-03-24 14:09:00,49.3,27.8,29.80,NE,42,2.0,10.0,43,0.00,,CLR,0.00,VWS V14.01,2013-03-24 18:09:00,
2013-03-24 14:15:00,49.1,27.0,29.79,NE,34,2.0,10.0,42,0.00,,CLR,0.00,VWS V14.01,2013-03-24 18:15:00,
2013-03-24 14:20:00,49.1,27.0,29.79,ENE,74,14.0,14.0,42,0.00,,CLR,0.00,VWS V14.01,2013-03-24 18:20:00,
2013-03-24 14:25:00,49.5,27.4,29.78,ENE,59,5.0,10.0,42,0.00,,CLR,0.00,VWS V14.01,2013-03-24 18:25:00,
2013-03-24 14:30:00,49.4,27.3,29.78,ENE,57,5.0,10.0,42,0.00,,CLR,0.00,VWS V14.01,2013-03-24 18:30:00,
2013-03-24 14:35:00,49.4,27.3,29.77,NE,55,2.0,4.0,42,0.00,,CLR,0.00,VWS V14.01,2013-03-24 18:35:00,
2013-03-24 14:40:00,49.6,26.9,29.76,ENE,78,2.0,10.0,41,0.00,,CLR,0.00,VWS V14.01,2013-03-24 18:40:00,
2013-03-24 14:45:00,49.3,26.6,29.76,WSW,238,8.0,10.0,41,0.00,,CLR,0.00,VWS V14.01,2013-03-24 18:45:00,
2013-03-24 14:50:00,49.2,27.1,29.76,WSW,252,8.0,12.0,42,0.00,,CLR,0.00,VWS V14.01,2013-03-24 18:50:00,
2013-03-24 14:55:00,49.3,27.2,29.76,SW,217,5.0,10.0,42,0.00,,CLR,0.00,VWS V14.01,2013-03-24 18:55:00,
2013-03-24 15:00:00,49.9,27.7,29.75,WNW,296,2.0,10.0,42,0.00,,CLR,0.00,VWS V14.01,2013-03-24 19:00:00,
2013-03-24 15:05:00,50.1,27.3,29.75,ENE,65,14.0,14.0,41,0.00,,CLR,0.00,VWS V14.01,2013-03-24 19:05:00,
2013-03-24 15:10:00,49.9,27.1,29.75,West,271,11.0,11.0,41,0.00,,CLR,0.00,VWS V14.01,2013-03-24 19:10:00,
2013-03-24 15:15:00,49.8,27.6,29.74,NE,49,5.0,12.0,42,0.00,,CLR,0.00,VWS V14.01,2013-03-24 19:15:00,
2013-03-24 15:20:00,49.8,27.1,29.75,NNW,337,5.0,12.0,41,0.00,,CLR,0.00,VWS V14.01,2013-03-24 19:20:00,
2013-03-24 15:25:00,49.6,27.5,29.74,North,11,2.0,4.0,42,0.00,,CLR,0.00,VWS V14.01,2013-03-24 19:25:00,
2013-03-24 15:30:00,49.6,28.0,29.74,NE,50,2.0,6.0,43,0.00,,CLR,0.00,VWS V14.01,2013-03-24 19:30:00,
2013-03-24 15:35:00,49.3,27.8,29.74,NE,53,2.0,6.0,43,0.00,,CLR,0.00,VWS V14.01,2013-03-24 19:35:00,
2013-03-24 15:40:00,48.7,27.2,29.74,ENE,61,2.0,4.0,43,0.00,,CLR,0.00,VWS V14.01,2013-03-24 19:40:00,
2013-03-24 15:45:00,49.0,27.5,29.74,ENE,64,2.0,8.0,43,0.00,,CLR,0.00,VWS V14.01,2013-03-24 19:45:00,
2013-03-24 15:50:00,49.2,27.1,29.74,ENE,57,2.0,2.0,42,0.00,,CLR,0.00,VWS V14.01,2013-03-24 19:50:00,
2013-03-24 15:55:00,49.1,27.6,29.74,ENE,63,5.0,10.0,43,0.00,,CLR,0.00,VWS V14.01,2013-03-24 19:55:00,
2013-03-24 16:00:00,48.9,27.4,29.74,East,96,2.0,0.0,43,0.00,,CLR,0.00,VWS V14.01,2013-03-24 20:00:00,
2013-03-24 16:05:00,49.0,27.5,29.73,East,96,2.0,4.0,43,0.00,,CLR,0.00,VWS V14.01,2013-03-24 20:05:00,
2013-03-24 16:10:00,48.9,26.8,29.74,East,84,5.0,6.0,42,0.00,,CLR,0.00,VWS V14.01,2013-03-24 20:10:00,
2013-03-24 16:16:00,48.7,26.6,29.73,NE,40,2.0,10.0,42,0.00,,CLR,0.00,VWS V14.01,2013-03-24 20:16:00,
2013-03-24 16:21:00,49.0,26.9,29.74,NE,41,2.0,0.0,42,0.00,,CLR,0.00,VWS V14.01,2013-03-24 20:21:00,
2013-03-24 16:26:00,49.1,27.6,29.73,ENE,72,2.0,10.0,43,0.00,,CLR,0.00,VWS V14.01,2013-03-24 20:26:00,
2013-03-24 16:31:00,49.2,26.5,29.73,WNW,287,2.0,4.0,41,0.00,,CLR,0.00,VWS V14.01,2013-03-24 20:31:00,
2013-03-24 16:36:00,49.3,26.6,29.73,WSW,257,2.0,8.0,41,0.00,,CLR,0.00,VWS V14.01,2013-03-24 20:36:00,
2013-03-24 16:42:00,49.2,27.1,29.72,North,355,2.0,4.0,42,0.00,,CLR,0.00,VWS V14.01,2013-03-24 20:42:00,
2013-03-24 16:47:00,48.9,26.8,29.73,North,10,5.0,10.0,42,0.00,,CLR,0.00,VWS V14.01,2013-03-24 20:47:00,
2013-03-24 16:52:00,48.7,26.6,29.73,WSW,257,2.0,8.0,42,0.00,,CLR,0.00,VWS V14.01,2013-03-24 20:52:00,
2013-03-24 16:57:00,48.4,27.0,29.72,SW,232,2.0,8.0,43,0.00,,CLR,0.00,VWS V14.01,2013-03-24 20:57:00,
2013-03-24 17:02:00,48.3,26.3,29.72,NNE,28,2.0,4.0,42,0.00,,CLR,0.00,VWS V14.01,2013-03-24 21:02:00,
2013-03-24 17:07:00,48.3,26.9,29.72,ENE,65,5.0,8.0,43,0.00,,CLR,0.00,VWS V14.01,2013-03-24 21:07:00,
2013-03-24 17:12:00,48.2,26.8,29.71,ENE,63,2.0,0.0,43,0.00,,CLR,0.00,VWS V14.01,2013-03-24 21:12:00,
2013-03-24 17:18:00,48.3,27.4,29.71,ENE,61,8.0,8.0,44,0.00,,CLR,0.00,VWS V14.01,2013-03-24 21:18:00,
2013-03-24 17:23:00,48.3,26.9,29.71,North,11,2.0,8.0,43,0.00,,CLR,0.00,VWS V14.01,2013-03-24 21:23:00,
2013-03-24 17:28:00,48.3,27.4,29.71,NNW,342,2.0,8.0,44,0.00,,CLR,0.00,VWS V14.01,2013-03-24 21:28:00,
2013-03-24 17:33:00,48.3,27.4,29.72,NNE,32,2.0,4.0,44,0.00,,CLR,0.00,VWS V14.01,2013-03-24 21:33:00,
2013-03-24 17:38:00,48.2,27.3,29.72,NNE,29,2.0,6.0,44,0.00,,CLR,0.00,VWS V14.01,2013-03-24 21:38:00,
2013-03-24 17:43:00,48.1,27.2,29.72,NNE,25,8.0,8.0,44,0.00,,CLR,0.00,VWS V14.01,2013-03-24 21:43:00,
2013-03-24 17:48:00,47.8,26.4,29.72,NNE,18,2.0,10.0,43,0.00,,CLR,0.00,VWS V14.01,2013-03-24 21:48:00,
2013-03-24 17:53:00,47.6,26.8,29.72,North,11,2.0,2.0,44,0.00,,CLR,0.00,VWS V14.01,2013-03-24 21:53:00,
2013-03-24 17:58:00,47.4,26.6,29.72,North,360,2.0,4.0,44,0.00,,CLR,0.00,VWS V14.01,2013-03-24 21:58:00,
2013-03-24 18:03:00,47.3,27.0,29.72,North,360,2.0,4.0,45,0.00,,CLR,0.00,VWS V14.01,2013-03-24 22:03:00,
2013-03-24 18:08:00,47.3,27.0,29.73,NNE,30,2.0,4.0,45,0.00,,CLR,0.00,VWS V14.01,2013-03-24 22:08:00,
2013-03-24 18:13:00,47.2,27.5,29.73,NNE,30,2.0,2.0,46,0.00,,CLR,0.00,VWS V14.01,2013-03-24 22:13:00,
2013-03-24 18:18:00,47.0,27.3,29.73,NNE,17,2.0,6.0,46,0.00,,CLR,0.00,VWS V14.01,2013-03-24 22:18:00,
2013-03-24 18:23:00,47.0,27.3,29.73,NNE,13,2.0,2.0,46,0.00,,CLR,0.00,VWS V14.01,2013-03-24 22:23:00,
2013-03-24 18:29:00,46.8,27.1,29.72,NE,41,2.0,6.0,46,0.00,,CLR,0.00,VWS V14.01,2013-03-24 22:29:00,
2013-03-24 18:34:00,46.7,27.0,29.72,NE,40,2.0,2.0,46,0.00,,CLR,0.00,VWS V14.01,2013-03-24 22:34:00,
2013-03-24 18:39:00,46.6,26.9,29.72,NE,36,2.0,6.0,46,0.00,,CLR,0.00,VWS V14.01,2013-03-24 22:39:00,
2013-03-24 18:44:00,46.5,27.4,29.72,NE,36,2.0,2.0,47,0.00,,CLR,0.00,VWS V14.01,2013-03-24 22:44:00,
2013-03-24 18:49:00,46.4,26.8,29.72,North,355,2.0,10.0,46,0.00,,CLR,0.00,VWS V14.01,2013-03-24 22:49:00,
2013-03-24 18:54:00,46.3,27.2,29.72,NNW,341,2.0,4.0,47,0.00,,CLR,0.00,VWS V14.01,2013-03-24 22:54:00,
2013-03-24 18:59:00,46.2,27.6,29.71,NNW,342,2.0,4.0,48,0.00,,CLR,0.00,VWS V14.01,2013-03-24 22:59:00,
2013-03-24 19:04:00,46.1,27.0,29.72,NE,36,2.0,2.0,47,0.00,,CLR,0.00,VWS V14.01,2013-03-24 23:04:00,
2013-03-24 19:09:00,46.0,27.4,29.72,NE,34,2.0,4.0,48,0.00,,CLR,0.00,VWS V14.01,2013-03-24 23:09:00,
2013-03-24 19:14:00,45.9,27.3,29.73,NW,326,2.0,4.0,48,0.00,,CLR,0.00,VWS V14.01,2013-03-24 23:14:00,
2013-03-24 19:19:00,45.8,27.2,29.73,NNW,342,2.0,4.0,48,0.00,,CLR,0.00,VWS V14.01,2013-03-24 23:19:00,
2013-03-24 19:24:00,45.7,27.1,29.73,NNW,331,2.0,2.0,48,0.00,,CLR,0.00,VWS V14.01,2013-03-24 23:24:00,
2013-03-24 19:29:00,45.6,27.1,29.74,NNW,331,2.0,2.0,48,0.00,,CLR,0.00,VWS V14.01,2013-03-24 23:29:00,
2013-03-24 19:34:00,45.5,27.0,29.74,NNW,348,2.0,4.0,48,0.00,,CLR,0.00,VWS V14.01,2013-03-24 23:34:00,
2013-03-24 19:39:00,45.5,27.5,29.75,NNW,348,2.0,4.0,49,0.00,,CLR,0.00,VWS V14.01,2013-03-24 23:39:00,
2013-03-24 19:44:00,45.5,28.0,29.75,North,350,2.0,0.0,50,0.00,,CLR,0.00,VWS V14.01,2013-03-24 23:44:00,
2013-03-24 19:49:00,45.3,27.8,29.76,North,360,2.0,2.0,50,0.00,,CLR,0.00,VWS V14.01,2013-03-24 23:49:00,
2013-03-24 19:55:00,45.3,27.8,29.76,NE,53,2.0,6.0,50,0.00,,CLR,0.00,VWS V14.01,2013-03-24 23:55:00,
2013-03-24 20:00:00,45.2,28.2,29.75,NE,54,2.0,6.0,51,0.00,,CLR,0.00,VWS V14.01,2013-03-25 00:00:00,
2013-03-24 20:05:00,45.2,28.2,29.76,NE,53,2.0,2.0,51,0.00,,CLR,0.00,VWS V14.01,2013-03-25 00:05:00,
2013-03-24 20:10:00,45.1,28.5,29.76,NE,54,2.0,2.0,52,0.00,,CLR,0.00,VWS V14.01,2013-03-25 00:10:00,
2013-03-24 20:15:00,45.0,28.0,29.76,NE,53,2.0,0.0,51,0.00,,CLR,0.00,VWS V14.01,2013-03-25 00:15:00,
2013-03-24 20:20:00,44.9,27.9,29.75,NE,53,2.0,0.0,51,0.00,,CLR,0.00,VWS V14.01,2013-03-25 00:20:00,
2013-03-24 20:25:00,44.8,28.3,29.75,NE,54,2.0,0.0,52,0.00,,CLR,0.00,VWS V14.01,2013-03-25 00:25:00,
2013-03-24 20:30:00,44.7,27.7,29.75,North,350,2.0,10.0,51,0.00,,CLR,0.00,VWS V14.01,2013-03-25 00:30:00,
2013-03-24 20:35:00,44.6,28.1,29.75,North,350,5.0,5.0,52,0.00,,CLR,0.00,VWS V14.01,2013-03-25 00:35:00,
2013-03-24 20:40:00,44.6,27.6,29.75,North,350,2.0,2.0,51,0.00,,CLR,0.00,VWS V14.01,2013-03-25 00:40:00,
2013-03-24 20:45:00,44.6,27.6,29.76,North,350,2.0,0.0,51,0.00,,CLR,0.00,VWS V14.01,2013-03-25 00:45:00,
2013-03-24 20:50:00,44.5,27.5,29.76,North,350,2.0,2.0,51,0.00,,CLR,0.00,VWS V14.01,2013-03-25 00:50:00,
2013-03-24 20:55:00,44.4,28.4,29.76,North,350,2.0,0.0,53,0.00,,CLR,0.00,VWS V14.01,2013-03-25 00:55:00,
2013-03-24 21:00:00,44.3,28.3,29.76,North,349,2.0,0.0,53,0.00,,CLR,0.00,VWS V14.01,2013-03-25 01:00:00,
2013-03-24 21:05:00,44.2,29.1,29.76,North,350,2.0,2.0,55,0.00,,CLR,0.00,VWS V14.01,2013-03-25 01:05:00,
2013-03-24 21:10:00,44.1,29.9,29.76,North,350,2.0,0.0,57,0.00,,CLR,0.00,VWS V14.01,2013-03-25 01:10:00,
2013-03-24 21:16:00,43.9,30.1,29.76,North,350,2.0,0.0,58,0.00,,CLR,0.00,VWS V14.01,2013-03-25 01:16:00,
2013-03-24 21:21:00,43.7,30.3,29.76,North,350,2.0,0.0,59,0.00,,CLR,0.00,VWS V14.01,2013-03-25 01:21:00,
2013-03-24 21:26:00,43.5,30.5,29.76,North,350,2.0,0.0,60,0.00,,CLR,0.00,VWS V14.01,2013-03-25 01:26:00,
2013-03-24 21:31:00,43.4,30.5,29.76,North,350,2.0,0.0,60,0.00,,CLR,0.00,VWS V14.01,2013-03-25 01:31:00,
2013-03-24 21:37:00,43.2,30.3,29.76,North,350,2.0,0.0,60,0.00,,CLR,0.00,VWS V14.01,2013-03-25 01:37:00,
2013-03-24 21:42:00,43.1,30.6,29.76,North,349,2.0,0.0,61,0.00,,CLR,0.00,VWS V14.01,2013-03-25 01:42:00,
2013-03-24 21:47:00,43.0,29.7,29.76,North,11,2.0,4.0,59,0.00,,CLR,0.00,VWS V14.01,2013-03-25 01:47:00,
2013-03-24 21:52:00,43.2,29.4,29.76,North,11,2.0,2.0,58,0.00,,CLR,0.00,VWS V14.01,2013-03-25 01:52:00,
2013-03-24 21:57:00,43.2,29.4,29.76,North,10,2.0,2.0,58,0.00,,CLR,0.00,VWS V14.01,2013-03-25 01:57:00,
2013-03-24 22:02:00,43.2,29.4,29.76,North,11,2.0,0.0,58,0.00,,CLR,0.00,VWS V14.01,2013-03-25 02:02:00,
2013-03-24 22:07:00,43.2,29.9,29.76,North,11,2.0,0.0,59,0.00,,CLR,0.00,VWS V14.01,2013-03-25 02:07:00,
2013-03-24 22:12:00,43.1,29.8,29.76,North,10,2.0,0.0,59,0.00,,CLR,0.00,VWS V14.01,2013-03-25 02:12:00,
2013-03-24 22:17:00,43.1,30.2,29.76,North,10,2.0,0.0,60,0.00,,CLR,0.00,VWS V14.01,2013-03-25 02:17:00,
2013-03-24 22:22:00,42.9,30.4,29.76,North,11,2.0,0.0,61,0.00,,CLR,0.00,VWS V14.01,2013-03-25 02:22:00,
2013-03-24 22:27:00,42.5,30.4,29.76,North,9,2.0,2.0,62,0.00,,CLR,0.00,VWS V14.01,2013-03-25 02:27:00,
2013-03-24 22:33:00,42.3,31.0,29.76,North,9,2.0,0.0,64,0.00,,CLR,0.00,VWS V14.01,2013-03-25 02:33:00,
2013-03-24 22:38:00,42.0,30.7,29.76,North,9,2.0,0.0,64,0.00,,CLR,0.00,VWS V14.01,2013-03-25 02:38:00,
2013-03-24 22:43:00,41.9,31.0,29.76,North,9,2.0,0.0,65,0.00,,CLR,0.00,VWS V14.01,2013-03-25 02:43:00,
2013-03-24 22:48:00,41.7,31.2,29.75,North,9,2.0,0.0,66,0.00,,CLR,0.00,VWS V14.01,2013-03-25 02:48:00,
2013-03-24 22:53:00,41.5,31.4,29.75,North,9,2.0,0.0,67,0.00,,CLR,0.00,VWS V14.01,2013-03-25 02:53:00,
2013-03-24 22:58:00,41.3,31.2,29.75,North,9,2.0,0.0,67,0.00,,CLR,0.00,VWS V14.01,2013-03-25 02:58:00,
2013-03-24 23:03:00,41.2,31.1,29.74,North,9,2.0,0.0,67,0.00,,CLR,0.00,VWS V14.01,2013-03-25 03:03:00,
2013-03-24 23:08:00,41.2,31.1,29.74,North,9,2.0,0.0,67,0.00,,CLR,0.00,VWS V14.01,2013-03-25 03:08:00,
2013-03-24 23:13:00,41.0,31.6,29.74,North,9,2.0,0.0,69,0.00,,CLR,0.00,VWS V14.01,2013-03-25 03:13:00,
2013-03-24 23:18:00,41.0,31.6,29.74,North,9,2.0,0.0,69,0.00,,CLR,0.00,VWS V14.01,2013-03-25 03:18:00,
2013-03-24 23:23:00,40.8,31.4,29.73,North,9,2.0,0.0,69,0.00,,CLR,0.00,VWS V14.01,2013-03-25 03:23:00,
2013-03-24 23:28:00,40.8,31.4,29.73,North,9,2.0,0.0,69,0.00,,CLR,0.00,VWS V14.01,2013-03-25 03:28:00,
2013-03-24 23:33:00,40.7,31.7,29.73,North,9,2.0,0.0,70,0.00,,CLR,0.00,VWS V14.01,2013-03-25 03:33:00,
2013-03-24 23:38:00,40.6,31.6,29.72,North,9,2.0,0.0,70,0.00,,CLR,0.00,VWS V14.01,2013-03-25 03:38:00,
2013-03-24 23:43:00,40.5,31.5,29.72,North,9,2.0,0.0,70,0.00,,CLR,0.00,VWS V14.01,2013-03-25 03:43:00,
2013-03-24 23:49:00,40.5,31.5,29.72,North,9,2.0,0.0,70,0.00,,CLR,0.00,VWS V14.01,2013-03-25 03:49:00,
2013-03-24 23:53:00,40.4,31.4,29.72,North,9,2.0,0.0,70,0.00,,CLR,0.00,VWS V14.01,2013-03-25 03:53:00,
2013-03-24 23:59:00,40.3,31.3,29.72,North,9,2.0,0.0,70,0.00,,CLR,0.00,VWS V14.01,2013-03-25 03:59:00,